[[{"header":{"parameterUnit":"m.s-1","parameterCategory":2,"la1":30.2991,"la2":30.254,"lo1":-89.0895,"lo2":-89.0444,"dy":0.0017,"dx":0.0017,"nx":28,"ny":28,"refTime":"2023-11-04T21:00:00:Z","depth":"0","parameterNumber":2,"parameterNumberName":"U-component_of_CURRENTS"},"data":[0,0,0,0,0,0,0,0,0,0,0,0,0,0,0,0,0,0,0,0,0,0,0,0,0,0,0,0,0,0,0,0,0,0,0,0,0,0,0,0,0,0,0,0,0,0,0,0,0,0,0,0,0,0,0,0,0,0,0.1448,0.1448,0,0.151,0.151,0.1511,0.1523,0.1523,0.1522,0.1522,0.1522,0.1522,0.1523,0,0,0,0,0,0,0,0,0,0,0,0,0,0.1309,0.1311,0.1448,0.1448,0.1449,0.1509,0.151,0.1511,0.1523,0.1523,0.1522,0.1522,0.1522,0.1522,0.1523,0,0,0,0,0,0,0,0,0,0,0,0,0,0.1368,0.1312,0.1447,0.1464,0.1466,0.1509,0.151,0.1511,0.1523,0.1523,0.1522,0.1522,0.1522,0.1522,0.1523,0.1536,0,0,0.1524,0.1524,0,0,0,0,0,0,0,0,0.1365,0.1373,0.146,0.1463,0.1465,0.1509,0.1461,0.1517,0.1523,0.15,0.1522,0.1521,0.1513,0.1514,0.1526,0.1536,0.1536,0.1524,0.1524,0.1525,0.1525,0,0,0,0,0,0,0,0.1361,0.1371,0.1471,0.1461,0.1464,0.1457,0.1465,0.1472,0.1507,0.1502,0.1503,0.1513,0.1514,0.1526,0.1526,0.1536,0.1524,0.1525,0.1525,0.1525,0.1576,0.1577,0,0,0,0,0,0,0.1359,0.1367,0.1469,0.1473,0.1414,0.1461,0.1469,0.1494,0.1508,0.151,0.1513,0.1513,0.1525,0.1525,0.1526,0.1563,0.1525,0.1525,0.1525,0.1575,0.1576,0.1577,0,0,0,0,0,0,0.1356,0.1368,0.1466,0.1421,0.1433,0.1464,0.1492,0.1496,0.151,0.1517,0.1518,0.1523,0.1525,0.1525,0.1552,0.1562,0.1525,0.1526,0.1574,0.1575,0.1577,0.1625,0,0,0,0,0,0,0.1352,0.1367,0.1381,0.1422,0.1436,0.1505,0.1492,0.1498,0.1517,0.1518,0.1526,0.1525,0.1524,0.1551,0.1552,0.1562,0.1526,0.1572,0.1574,0.1576,0.1622,0.1628,0.1633,0,0,0,0,0,0.1347,0.1373,0.1382,0.1394,0.1456,0.1506,0.1513,0.1531,0.1518,0.1538,0.1546,0.1525,0.1564,0.1553,0.1554,0.1564,0.1571,0.1574,0.1576,0.1619,0.1627,0.1633,0,0,0,0,0,0,0.132,0.1379,0.1388,0.1431,0.147,0.1509,0.1526,0.1533,0.1555,0.1552,0.1547,0.1549,0.1575,0.1566,0.1554,0.1585,0.156,0.1563,0.1593,0.16,0.1605,0.1585,0.1527,0,0,0,0,0,0.1322,0.1359,0.1408,0.1443,0.1462,0.1491,0.151,0.1528,0.1553,0.1562,0.1565,0.157,0.1586,0.159,0.1602,0.1621,0.1632,0.1626,0.1631,0.1636,0.1621,0.1641,0.1647,0.1585,0.1585,0.1585,0,0,0.1318,0.1358,0.1376,0.1439,0.1466,0.1504,0.1502,0.1541,0.1567,0.1558,0.1584,0.1592,0.1597,0.1626,0.1634,0.1618,0.1674,0.1639,0.1643,0.1625,0.1645,0.165,0.1656,0.1587,0.1586,0.1586,0,0,0.1341,0.1368,0.1409,0.1441,0.1494,0.1516,0.1527,0.157,0.1583,0.1615,0.1616,0.1631,0.1648,0.1659,0.1664,0.1704,0.1706,0.1707,0.1714,0.1736,0.1741,0.1745,0.1828,0.1839,0.1705,0.1705,0.1705,0,0.1332,0.14,0.1427,0.1472,0.15,0.152,0.1564,0.1583,0.1626,0.1636,0.1626,0.1656,0.1659,0.1692,0.1706,0.1714,0.1747,0.169,0.1742,0.1746,0.175,0.1833,0.1844,0.1708,0.1708,0.1707,0.1707,0,0.1393,0.1437,0.1463,0.1527,0.1554,0.16,0.1628,0.1648,0.1652,0.1667,0.1694,0.1704,0.1716,0.1724,0.1725,0.1756,0.1784,0.1753,0.1724,0.1759,0.1845,0.1857,0.1712,0.1711,0.171,0.1709,0,0,0.1413,0.149,0.1503,0.1532,0.159,0.162,0.1652,0.1696,0.1706,0.1725,0.1744,0.1764,0.1756,0.176,0.1767,0.1776,0.1852,0.1773,0.1773,0.1854,0.1953,0.2101,0.2127,0.183,0.183,0.1831,0.2026,0,0.1461,0.154,0.1573,0.1636,0.1676,0.1692,0.1716,0.1743,0.1753,0.1771,0.1774,0.1794,0.1776,0.1785,0.1794,0.1837,0.1873,0.1805,0.1906,0.191,0.2035,0.2141,0.2177,0.2363,0.2037,0.2039,0.204,0,0.1528,0.1571,0.1638,0.1687,0.1705,0.1731,0.1762,0.1794,0.1812,0.1815,0.1823,0.1826,0.1865,0.1824,0.1912,0.1874,0.1913,0.1937,0.1945,0.2061,0.2077,0.2263,0.2395,0.2283,0.2057,0.2056,0.2054,0,0.154,0.1622,0.1671,0.1692,0.1742,0.1759,0.1784,0.1802,0.1824,0.1847,0.1861,0.1889,0.1924,0.1952,0.2024,0.1968,0.2132,0.2061,0.2238,0.2252,0.229,0.2305,0.2315,0.2109,0.2109,0.2108,0.2108,0,0.1589,0.1629,0.1674,0.1699,0.1739,0.177,0.1799,0.1819,0.1846,0.1882,0.1887,0.1934,0.1949,0.2043,0.2072,0.2244,0.2187,0.2276,0.2313,0.2318,0.2333,0.224,0.2157,0.2116,0.2114,0.2113,0.2112,0,0.1599,0.1635,0.1686,0.1734,0.1746,0.1771,0.1809,0.1817,0.186,0.191,0.1925,0.1998,0.2151,0.2218,0.2313,0.2351,0.2421,0.2523,0.2573,0.2613,0.2662,0.2582,0.2575,0.248,0.2751,0.2756,0.276,0,0.1615,0.1641,0.1694,0.1701,0.1722,0.1755,0.1762,0.1811,0.1828,0.1963,0.1989,0.2159,0.2299,0.2556,0.2667,0.2831,0.2626,0.2919,0.2798,0.2712,0.2647,0.2475,0.2377,0.2889,0.2894,0.2898,0.2901,0,0.1625,0.1637,0.1661,0.1677,0.1689,0.1714,0.1742,0.1769,0.1847,0.1937,0.2102,0.2249,0.2557,0.2762,0.2995,0.3078,0.2803,0.3009,0.2871,0.274,0.2596,0.2508,0.2743,0.2936,0.2933,0.293,0.2928,0.2927,0.1614,0.1622,0.1631,0.1646,0.1647,0.1661,0.1683,0.1743,0.1833,0.1994,0.216,0.2402,0.2732,0.3099,0.316,0.3265,0.3098,0.3173,0.3088,0.2925,0.2803,0.3173,0.3429,0.3428,0.3427,0.3427,0.3427,0,0.1604,0.1602,0.1595,0.1603,0.1582,0.1608,0.1651,0.169,0.1812,0.2025,0.2228,0.2619,0.2903,0.3115,0.3372,0.3318,0.3114,0.3204,0.2897,0.2792,0.3109,0.3083,0.3334,0.3334,0.3334,0.3334,0.3334,0.3334,0.1595,0.1578,0.1571,0.1532,0.1534,0.1532,0.1564,0.1656,0.1793,0.2069,0.2297,0.2513,0.2852,0.3202,0.3281,0.3232,0.2884,0.2874,0.2687,0.2852,0.2837,0.2822,0.2775,0.2958,0.2957,0.23,0.2295,0.2292]},{"header":{"parameterUnit":"m.s-1","parameterCategory":2,"la1":30.2991,"la2":30.254,"lo1":-89.0895,"lo2":-89.0444,"dy":0.0017,"dx":0.0017,"nx":28,"ny":28,"refTime":"2023-11-04T21:00:00:Z","depth":"0","parameterNumber":3,"parameterNumberName":"V-component_of_CURRENTS"},"data":[0,0,0,0,0,0,0,0,0,0,0,0,0,0,0,0,0,0,0,0,0,0,0,0,0,0,0,0,0,0,0,0,0,0,0,0,0,0,0,0,0,0,0,0,0,0,0,0,0,0,0,0,0,0,0,0,0,0,-0.1149,-0.115,0,-0.1227,-0.1228,-0.1228,-0.1267,-0.1267,-0.1267,-0.1268,-0.1342,-0.1344,-0.1346,0,0,0,0,0,0,0,0,0,0,0,0,0,-0.1092,-0.1092,-0.1148,-0.115,-0.1151,-0.1227,-0.1228,-0.1229,-0.1267,-0.1267,-0.1268,-0.1268,-0.1342,-0.1344,-0.1346,0,0,0,0,0,0,0,0,0,0,0,0,0,-0.1136,-0.1093,-0.1148,-0.1181,-0.1185,-0.1227,-0.1228,-0.1229,-0.1267,-0.1267,-0.1268,-0.1268,-0.1341,-0.1343,-0.1346,-0.1356,0,0,-0.1354,-0.1355,0,0,0,0,0,0,0,0,-0.1133,-0.1137,-0.1175,-0.1179,-0.1183,-0.124,-0.1236,-0.1272,-0.1267,-0.1233,-0.1268,-0.1268,-0.1309,-0.1314,-0.1325,-0.1359,-0.1362,-0.1354,-0.1356,-0.1357,-0.1358,0,0,0,0,0,0,0,-0.113,-0.1135,-0.1177,-0.1176,-0.1181,-0.1213,-0.1219,-0.1243,-0.1266,-0.1236,-0.124,-0.1252,-0.1311,-0.1322,-0.1327,-0.1363,-0.1354,-0.1357,-0.1358,-0.1359,-0.1446,-0.1447,0,0,0,0,0,0,-0.1122,-0.1131,-0.1175,-0.118,-0.1161,-0.1214,-0.122,-0.1219,-0.1266,-0.1274,-0.1252,-0.1254,-0.1317,-0.1324,-0.133,-0.1357,-0.1357,-0.136,-0.1361,-0.1445,-0.1446,-0.1447,0,0,0,0,0,0,-0.112,-0.1124,-0.1171,-0.116,-0.1169,-0.1214,-0.1213,-0.1221,-0.1226,-0.1279,-0.1286,-0.125,-0.1318,-0.1326,-0.1356,-0.1359,-0.1361,-0.1363,-0.1444,-0.1446,-0.1447,-0.1403,0,0,0,0,0,0,-0.1118,-0.1123,-0.1117,-0.1159,-0.1169,-0.1184,-0.1213,-0.1222,-0.1235,-0.1238,-0.1279,-0.1287,-0.1319,-0.1352,-0.1359,-0.1363,-0.1365,-0.1444,-0.1445,-0.1446,-0.1403,-0.1402,-0.1401,0,0,0,0,0,-0.1115,-0.1104,-0.1115,-0.1121,-0.1159,-0.1184,-0.1191,-0.1224,-0.1235,-0.123,-0.127,-0.1285,-0.1366,-0.1354,-0.1362,-0.1367,-0.1443,-0.1445,-0.1446,-0.1404,-0.1402,-0.1401,0,0,0,0,0,0,-0.1073,-0.1109,-0.1122,-0.1121,-0.1146,-0.1191,-0.1194,-0.1214,-0.1241,-0.1246,-0.129,-0.13,-0.1325,-0.1356,-0.1342,-0.1399,-0.1408,-0.1412,-0.1374,-0.1373,-0.1372,-0.136,-0.1368,0,0,0,0,0,-0.1061,-0.106,-0.1102,-0.1096,-0.1109,-0.1148,-0.1161,-0.1183,-0.1216,-0.1228,-0.1261,-0.1303,-0.1339,-0.1362,-0.1391,-0.1421,-0.1412,-0.1433,-0.1432,-0.1431,-0.1428,-0.1427,-0.1424,-0.1452,-0.1452,-0.1452,0,0,-0.1043,-0.1062,-0.1062,-0.1087,-0.111,-0.1128,-0.1155,-0.117,-0.1192,-0.1232,-0.1262,-0.1289,-0.1343,-0.1377,-0.1393,-0.1404,-0.1412,-0.1433,-0.1431,-0.143,-0.1428,-0.1425,-0.1422,-0.1453,-0.1453,-0.1453,0,0,-0.1011,-0.1022,-0.1017,-0.1042,-0.1076,-0.1101,-0.1101,-0.1142,-0.1167,-0.1203,-0.1237,-0.1267,-0.1325,-0.1363,-0.1393,-0.1405,-0.1397,-0.1416,-0.1411,-0.1409,-0.1406,-0.1403,-0.1351,-0.1344,-0.1427,-0.1427,-0.1427,0,-0.0988,-0.099,-0.1018,-0.1031,-0.1048,-0.1085,-0.1091,-0.1127,-0.1173,-0.1189,-0.1208,-0.128,-0.1323,-0.1365,-0.1382,-0.14,-0.1379,-0.1407,-0.1404,-0.1402,-0.14,-0.1347,-0.134,-0.1425,-0.1425,-0.1425,-0.1425,0,-0.0957,-0.0973,-0.0971,-0.0998,-0.1018,-0.1025,-0.1081,-0.1095,-0.1127,-0.1167,-0.1203,-0.126,-0.13,-0.1326,-0.1367,-0.138,-0.1359,-0.1389,-0.1398,-0.1394,-0.1339,-0.1332,-0.1422,-0.1423,-0.1423,-0.1424,0,0,-0.0867,-0.0936,-0.0935,-0.0946,-0.1001,-0.1003,-0.1043,-0.1077,-0.1083,-0.1146,-0.1152,-0.1243,-0.1258,-0.1293,-0.1333,-0.1355,-0.1322,-0.137,-0.1371,-0.1301,-0.1271,-0.1201,-0.1186,-0.1347,-0.1346,-0.1346,-0.1223,0,-0.0829,-0.0842,-0.0892,-0.0898,-0.0906,-0.0961,-0.099,-0.1031,-0.1069,-0.1084,-0.1157,-0.1176,-0.1254,-0.125,-0.1292,-0.1299,-0.1309,-0.1349,-0.1302,-0.1299,-0.1225,-0.1179,-0.1087,-0.0966,-0.1216,-0.1215,-0.1214,0,-0.0776,-0.0793,-0.0798,-0.0846,-0.0851,-0.0859,-0.0874,-0.091,-0.0966,-0.0997,-0.104,-0.1081,-0.1116,-0.1181,-0.1205,-0.1221,-0.1249,-0.1269,-0.1265,-0.1214,-0.1219,-0.1022,-0.0945,-0.112,-0.1204,-0.1205,-0.1206,0,-0.0674,-0.0722,-0.0715,-0.0733,-0.0795,-0.0791,-0.0811,-0.0866,-0.0869,-0.0915,-0.0886,-0.0972,-0.0945,-0.1026,-0.1073,-0.1131,-0.1072,-0.1152,-0.1115,-0.1108,-0.1028,-0.1015,-0.1102,-0.1178,-0.1178,-0.1178,-0.1179,0,-0.0612,-0.0606,-0.066,-0.0655,-0.0628,-0.0701,-0.0674,-0.0714,-0.0736,-0.069,-0.0813,-0.0749,-0.0905,-0.0897,-0.1001,-0.0993,-0.1006,-0.1086,-0.1073,-0.1007,-0.0994,-0.1144,-0.1271,-0.1173,-0.1175,-0.1175,-0.1176,0,-0.0515,-0.0559,-0.0544,-0.0582,-0.0584,-0.0556,-0.0567,-0.0547,-0.0576,-0.05,-0.0492,-0.0537,-0.0517,-0.0648,-0.0721,-0.0833,-0.0938,-0.0887,-0.077,-0.0748,-0.0915,-0.1042,-0.1069,-0.1145,-0.0831,-0.0829,-0.0826,0,-0.0471,-0.0455,-0.0462,-0.0442,-0.0453,-0.0431,-0.0418,-0.0459,-0.041,-0.0337,-0.0261,-0.0233,-0.016,-0.0236,-0.0436,-0.0561,-0.0787,-0.0597,-0.073,-0.0886,-0.1019,-0.111,-0.1182,-0.0586,-0.0583,-0.0579,-0.0577,0,-0.0381,-0.0378,-0.0371,-0.0326,-0.0294,-0.026,-0.0216,-0.0137,-0.0131,-0.0011,0.0169,0.0243,0.0157,0.01,-0.0117,-0.0261,-0.0698,-0.0537,-0.0741,-0.0862,-0.0923,-0.1,-0.0686,-0.0549,-0.0552,-0.0554,-0.0555,-0.0556,-0.03,-0.0268,-0.0251,-0.0199,-0.0162,-0.0065,0.0046,0.0145,0.0315,0.0573,0.0563,0.0791,0.0571,0.0299,0.0036,-0.0401,-0.049,-0.0546,-0.0684,-0.0758,-0.0855,-0.0454,-0.0295,-0.0296,-0.0297,-0.0298,-0.0299,0,-0.0183,-0.0168,-0.0129,-0.0048,0.0044,0.0032,0.0196,0.037,0.068,0.0915,0.1139,0.1238,0.0935,0.0496,-0.0098,-0.0465,-0.067,-0.0697,-0.0848,-0.092,-0.0572,-0.059,-0.0438,-0.0437,-0.0437,-0.0437,-0.0437,-0.0437,-0.012,-0.0056,-0.0044,0.013,0.0204,0.0404,0.0545,0.0822,0.1056,0.1484,0.1709,0.1815,0.1518,0.0345,-0.0521,-0.0753,-0.1082,-0.1074,-0.1302,-0.1125,-0.1125,-0.1124,-0.1173,-0.1144,-0.1145,-0.1569,-0.1574,-0.1577]}],[{"header":{"parameterUnit":"m.s-1","parameterCategory":2,"la1":30.2991,"la2":30.254,"lo1":-89.0895,"lo2":-89.0444,"dy":0.0017,"dx":0.0017,"nx":28,"ny":28,"refTime":"2023-11-04T21:00:00:Z","depth":"2","parameterNumber":2,"parameterNumberName":"U-component_of_CURRENTS"},"data":[0,0,0,0,0,0,0,0,0,0,0,0,0,0,0,0,0,0,0,0,0,0,0,0,0,0,0,0,0,0,0,0,0,0,0,0,0,0,0,0,0,0,0,0,0,0,0,0,0,0,0,0,0,0,0,0,0,0,0.1693,0.1693,0,0.1742,0.1742,0.1742,0.1737,0.1736,0.1736,0.1735,0.1785,0.1787,0.1789,0,0,0,0,0,0,0,0,0,0,0,0,0,0.1607,0.1609,0.1693,0.1693,0.1694,0.1741,0.1742,0.1742,0.1737,0.1736,0.1735,0.1735,0.1785,0.1787,0.1789,0,0,0,0,0,0,0,0,0,0,0,0,0,0.1647,0.1609,0.1692,0.1699,0.17,0.1741,0.1742,0.1742,0.1737,0.1736,0.1735,0.1735,0.1784,0.1787,0.1789,0.1823,0,0,0.1798,0.1799,0,0,0,0,0,0,0,0,0.1644,0.1649,0.1697,0.1699,0.17,0.1734,0.173,0.177,0.1737,0.172,0.1735,0.1734,0.1771,0.1774,0.1782,0.1825,0.1828,0.1798,0.18,0.1801,0.1802,0,0,0,0,0,0,0,0.1642,0.1647,0.1709,0.1698,0.17,0.1704,0.1708,0.1738,0.1748,0.1722,0.1722,0.1732,0.1771,0.1779,0.1783,0.1828,0.1798,0.1801,0.1802,0.1803,0.1898,0.1899,0,0,0,0,0,0,0.1641,0.1645,0.1708,0.1711,0.1672,0.1706,0.1711,0.1722,0.1747,0.1751,0.1733,0.1731,0.1775,0.178,0.1785,0.1835,0.1801,0.1804,0.1805,0.1897,0.1898,0.1899,0,0,0,0,0,0,0.1639,0.1646,0.1706,0.1681,0.1689,0.1709,0.1721,0.1724,0.1736,0.1756,0.1759,0.1743,0.1774,0.1781,0.1807,0.1836,0.1805,0.1807,0.1896,0.1898,0.1899,0.193,0,0,0,0,0,0,0.1637,0.1645,0.1653,0.1681,0.1691,0.174,0.1723,0.1725,0.1744,0.1743,0.1766,0.177,0.1774,0.1803,0.181,0.184,0.181,0.1895,0.1897,0.1899,0.1928,0.1932,0.1935,0,0,0,0,0,0.1633,0.1646,0.1653,0.1661,0.1701,0.1741,0.1747,0.1756,0.1746,0.1761,0.1764,0.1769,0.1818,0.1806,0.1814,0.1845,0.1895,0.1897,0.1898,0.1926,0.1931,0.1935,0,0,0,0,0,0,0.1614,0.1648,0.1656,0.1678,0.1714,0.1742,0.1759,0.1763,0.1778,0.1774,0.1781,0.1785,0.1821,0.1827,0.1813,0.1876,0.1858,0.1862,0.1876,0.1881,0.1885,0.1892,0.1812,0,0,0,0,0,0.1616,0.1635,0.1671,0.1694,0.1712,0.1737,0.1753,0.1762,0.1781,0.1787,0.18,0.1815,0.1837,0.1852,0.1873,0.1909,0.1933,0.1934,0.1938,0.1941,0.1951,0.2003,0.2014,0.1906,0.1906,0.1906,0,0,0.1618,0.1639,0.1651,0.1692,0.1719,0.1753,0.1744,0.1778,0.1802,0.1792,0.1824,0.1834,0.185,0.1886,0.1903,0.1894,0.1986,0.1944,0.1946,0.1955,0.2007,0.2017,0.2027,0.1907,0.1907,0.1907,0,0,0.163,0.1653,0.167,0.1709,0.1753,0.1769,0.178,0.1814,0.1824,0.1859,0.1854,0.1876,0.1914,0.1928,0.194,0.1981,0.2006,0.199,0.2019,0.207,0.2079,0.2088,0.214,0.2153,0.1992,0.1992,0.1992,0,0.163,0.1668,0.1685,0.1723,0.1762,0.1777,0.1817,0.1834,0.1869,0.1882,0.1874,0.1926,0.1937,0.1979,0.1989,0.1993,0.2025,0.1999,0.2076,0.2085,0.2093,0.2144,0.2158,0.1994,0.1993,0.1993,0.1993,0,0.1664,0.1704,0.1727,0.1777,0.1809,0.1859,0.1886,0.1909,0.1919,0.1934,0.1976,0.1988,0.2018,0.2026,0.2022,0.2085,0.2091,0.2076,0.2065,0.2106,0.2157,0.2171,0.1996,0.1995,0.1995,0.1994,0,0,0.1656,0.1733,0.1748,0.1774,0.1853,0.1871,0.1922,0.1966,0.1975,0.2014,0.2041,0.2082,0.2084,0.2097,0.2097,0.2134,0.2219,0.2133,0.2135,0.2187,0.2343,0.2306,0.2318,0.2221,0.2224,0.2226,0.2358,0,0.169,0.1754,0.1795,0.1858,0.1893,0.194,0.1974,0.2007,0.2029,0.2052,0.208,0.2096,0.2112,0.2111,0.2167,0.2192,0.2257,0.2185,0.2294,0.2297,0.2261,0.2333,0.2105,0.2201,0.2372,0.2374,0.2376,0,0.1719,0.1757,0.1821,0.1882,0.1901,0.193,0.1979,0.2011,0.2054,0.2072,0.2119,0.2127,0.2189,0.218,0.2307,0.2263,0.2323,0.2348,0.2353,0.2318,0.2286,0.2185,0.222,0.2399,0.2398,0.2396,0.2394,0,0.1684,0.1778,0.1819,0.1854,0.1917,0.1939,0.1967,0.2011,0.204,0.207,0.2101,0.2166,0.2207,0.2285,0.2383,0.234,0.2526,0.2466,0.2503,0.2501,0.2328,0.2306,0.2583,0.2582,0.2582,0.2582,0.2581,0,0.1709,0.174,0.1796,0.1816,0.1849,0.1896,0.1925,0.1958,0.2014,0.206,0.2101,0.2175,0.224,0.2355,0.2415,0.253,0.2573,0.2533,0.254,0.2332,0.2311,0.2489,0.2476,0.2587,0.2586,0.2585,0.2584,0,0.1668,0.1719,0.1752,0.1811,0.1828,0.1838,0.1911,0.192,0.1987,0.2056,0.2071,0.2203,0.2355,0.2451,0.2584,0.2579,0.2665,0.2706,0.2463,0.2438,0.2589,0.2576,0.271,0.271,0.271,0.271,0.271,0,0.1655,0.1665,0.1724,0.1732,0.176,0.1792,0.1808,0.1887,0.1919,0.2098,0.2131,0.2305,0.2431,0.2621,0.2624,0.2709,0.2783,0.2533,0.2397,0.2613,0.2607,0.2594,0.2582,0.2185,0.2181,0.2177,0.2174,0,0.1611,0.1626,0.1641,0.1674,0.169,0.1726,0.1769,0.1813,0.1923,0.2029,0.221,0.2326,0.2489,0.2472,0.2557,0.2564,0.2476,0.2463,0.2776,0.2185,0.2128,0.2118,0.2122,0.2143,0.2146,0.2148,0.215,0.2151,0.1557,0.1565,0.1582,0.1604,0.1623,0.1658,0.17,0.1774,0.1882,0.2005,0.2149,0.2247,0.2277,0.2292,0.2279,0.2239,0.2388,0.2245,0.2251,0.2263,0.2176,0.2121,0.2119,0.2122,0.2124,0.2127,0.2129,0,0.1506,0.1516,0.1518,0.1549,0.1552,0.1594,0.1666,0.1691,0.1827,0.1905,0.2013,0.1883,0.1891,0.1977,0.1858,0.184,0.1765,0.1777,0.1659,0.1692,0.1722,0.1602,0.1396,0.1394,0.1392,0.139,0,0,0.1479,0.1465,0.1469,0.1466,0.1494,0.1533,0.1587,0.164,0.169,0.1691,0.1706,0.1751,0.1889,0.1604,0.1571,0.1483,0.1565,0.1416,0.2003,0.1897,0.1923,0.1995,0.185,0,0,0,0,0]},{"header":{"parameterUnit":"m.s-1","parameterCategory":2,"la1":30.2991,"la2":30.254,"lo1":-89.0895,"lo2":-89.0444,"dy":0.0017,"dx":0.0017,"nx":28,"ny":28,"refTime":"2023-11-04T21:00:00:Z","depth":"2","parameterNumber":3,"parameterNumberName":"V-component_of_CURRENTS"},"data":[0,0,0,0,0,0,0,0,0,0,0,0,0,0,0,0,0,0,0,0,0,0,0,0,0,0,0,0,0,0,0,0,0,0,0,0,0,0,0,0,0,0,0,0,0,0,0,0,0,0,0,0,0,0,0,0,0,0,-0.0018,-0.0018,0,-0.0054,-0.0055,-0.0055,-0.0107,-0.0108,-0.0109,-0.011,-0.0181,-0.0182,-0.0183,0,0,0,0,0,0,0,0,0,0,0,0,0,-0.002,-0.0019,-0.0018,-0.0018,-0.0019,-0.0054,-0.0055,-0.0055,-0.0107,-0.0108,-0.0109,-0.011,-0.018,-0.0182,-0.0183,0,0,0,0,0,0,0,0,0,0,0,0,0,-0.0035,-0.0019,-0.0018,-0.0048,-0.0051,-0.0054,-0.0055,-0.0056,-0.0107,-0.0108,-0.0109,-0.011,-0.018,-0.0182,-0.0183,-0.017,0,0,-0.0188,-0.0189,0,0,0,0,0,0,0,0,-0.0034,-0.0035,-0.0043,-0.0046,-0.0049,-0.0077,-0.0082,-0.0095,-0.0107,-0.0087,-0.011,-0.0111,-0.0148,-0.0152,-0.0157,-0.0173,-0.0176,-0.0189,-0.019,-0.019,-0.0191,0,0,0,0,0,0,0,-0.0033,-0.0034,-0.0033,-0.0043,-0.0047,-0.0069,-0.0072,-0.0085,-0.0111,-0.0088,-0.0092,-0.0094,-0.015,-0.0155,-0.0159,-0.0177,-0.0189,-0.019,-0.0191,-0.0192,-0.0218,-0.0218,0,0,0,0,0,0,-0.0023,-0.0032,-0.0032,-0.0034,-0.0043,-0.0068,-0.0071,-0.0067,-0.011,-0.0118,-0.0093,-0.0097,-0.0152,-0.0157,-0.0162,-0.0175,-0.019,-0.0192,-0.0193,-0.0218,-0.0218,-0.0217,0,0,0,0,0,0,-0.0023,-0.0023,-0.0031,-0.0034,-0.0036,-0.0066,-0.0061,-0.0067,-0.0079,-0.0114,-0.0122,-0.0099,-0.0153,-0.0159,-0.0175,-0.0177,-0.0193,-0.0194,-0.0219,-0.0218,-0.0218,-0.0184,0,0,0,0,0,0,-0.0023,-0.0022,-0.0015,-0.0033,-0.0036,-0.0029,-0.006,-0.0067,-0.0078,-0.0082,-0.0121,-0.0129,-0.0154,-0.0172,-0.0177,-0.018,-0.0196,-0.0219,-0.0218,-0.0218,-0.0185,-0.0182,-0.0179,0,0,0,0,0,-0.0023,-0.0,-0.0015,-0.0015,-0.0025,-0.0029,-0.0032,-0.0058,-0.0076,-0.0075,-0.0104,-0.0128,-0.0172,-0.0173,-0.0179,-0.0182,-0.0219,-0.0219,-0.0218,-0.0187,-0.0183,-0.0179,0,0,0,0,0,0,0.0005,-0.0004,-0.002,-0.0002,-0.0016,-0.0037,-0.0035,-0.0054,-0.0074,-0.0082,-0.0119,-0.0128,-0.0144,-0.0162,-0.0162,-0.0187,-0.0201,-0.0201,-0.0175,-0.0172,-0.0169,-0.0151,-0.0197,0,0,0,0,0,0.0014,0.0022,0.0008,0.0018,0.0015,-0.0011,-0.0016,-0.0034,-0.0053,-0.0064,-0.0092,-0.0121,-0.0143,-0.0156,-0.0176,-0.0184,-0.0197,-0.0191,-0.0188,-0.0185,-0.0174,-0.0187,-0.0184,-0.0215,-0.0215,-0.0215,0,0,0.0024,0.0022,0.0024,0.0023,0.0009,0.0015,-0.0017,-0.002,-0.0023,-0.0067,-0.008,-0.0109,-0.0141,-0.0156,-0.0165,-0.0173,-0.0185,-0.0184,-0.0182,-0.0172,-0.0186,-0.0183,-0.018,-0.0214,-0.0215,-0.0215,0,0,0.0064,0.0049,0.0075,0.0061,0.0049,0.0034,0.0035,0.0014,-0.0003,-0.0017,-0.0051,-0.0077,-0.0111,-0.0133,-0.015,-0.0138,-0.0167,-0.015,-0.0124,-0.0137,-0.0135,-0.0133,-0.0153,-0.0153,-0.0151,-0.0151,-0.0151,0,0.008,0.0098,0.0081,0.0095,0.0084,0.0046,0.0062,0.0045,0.0018,0.001,-0.0018,-0.0065,-0.0099,-0.0111,-0.0117,-0.0132,-0.0145,-0.0136,-0.0133,-0.0131,-0.0129,-0.0151,-0.0151,-0.0149,-0.0149,-0.015,-0.015,0,0.0126,0.0135,0.0146,0.0147,0.0143,0.014,0.0117,0.0106,0.0075,0.0053,0.0029,-0.0016,-0.0047,-0.0065,-0.0093,-0.0098,-0.0114,-0.0126,-0.0141,-0.0124,-0.0148,-0.0149,-0.0147,-0.0147,-0.0148,-0.0148,0,0,0.0155,0.0179,0.017,0.0172,0.016,0.0152,0.0161,0.0151,0.0142,0.0107,0.0099,0.005,0.0017,-0.0002,-0.0041,-0.0056,-0.0072,-0.0087,-0.0088,-0.0104,-0.0105,-0.0124,-0.0128,-0.0085,-0.0085,-0.0084,-0.0129,0,0.0187,0.0223,0.0226,0.0233,0.0245,0.0213,0.0217,0.02,0.0174,0.0155,0.0112,0.0076,0.0044,0.0009,-0.0001,-0.0052,-0.0072,-0.0059,-0.012,-0.0122,-0.0139,-0.0128,-0.0145,-0.0187,-0.013,-0.0131,-0.0131,0,0.0213,0.0232,0.0265,0.0265,0.0264,0.0254,0.0233,0.0233,0.0213,0.0193,0.0172,0.013,0.0099,0.0058,0.0007,0.0017,-0.004,-0.0078,-0.0081,-0.0108,-0.0142,-0.0193,-0.0191,-0.0133,-0.0133,-0.0132,-0.0132,0,0.0218,0.0241,0.0265,0.0257,0.0269,0.0258,0.0241,0.0231,0.025,0.02,0.0208,0.0163,0.0135,0.0081,0.0004,-0.0003,-0.0051,-0.0074,-0.014,-0.0143,-0.0172,-0.0178,-0.0114,-0.0114,-0.0114,-0.0113,-0.0113,0,0.024,0.0235,0.0251,0.0251,0.0262,0.0245,0.0254,0.0235,0.0243,0.0292,0.0213,0.0252,0.0139,0.0105,0.0027,-0.0048,-0.0034,-0.0129,-0.0151,-0.0162,-0.0166,-0.0129,-0.013,-0.0115,-0.0115,-0.0114,-0.0114,0,0.0245,0.0255,0.0279,0.028,0.0274,0.0267,0.0281,0.0297,0.028,0.0345,0.0333,0.0313,0.0274,0.0168,0.007,-0.002,-0.0103,-0.0142,-0.0152,-0.0175,-0.0195,-0.0194,-0.0218,-0.0219,-0.022,-0.022,-0.0221,0,0.0259,0.0275,0.0303,0.032,0.0312,0.0307,0.0326,0.0316,0.0367,0.0421,0.0475,0.0429,0.047,0.0301,0.0092,-0.0072,-0.0075,-0.0216,-0.0233,-0.0184,-0.0204,-0.0201,-0.0199,-0.0268,-0.0268,-0.0269,-0.027,0,0.0288,0.0294,0.0324,0.0371,0.0381,0.0421,0.044,0.051,0.0544,0.0639,0.0767,0.0789,0.0581,0.0403,0.0099,-0.0016,-0.0194,-0.0236,-0.0179,-0.0234,-0.0233,-0.0252,-0.0248,-0.0276,-0.0276,-0.0275,-0.0275,-0.0275,0.0305,0.0336,0.0383,0.0427,0.0459,0.0533,0.0606,0.0701,0.0853,0.0978,0.0964,0.0971,0.0678,0.0301,0.007,-0.0217,-0.0196,-0.0305,-0.0302,-0.0298,-0.0291,-0.0292,-0.0345,-0.0345,-0.0344,-0.0344,-0.0344,0,0.0338,0.0369,0.0426,0.0495,0.0558,0.0558,0.0698,0.0819,0.1066,0.1102,0.1188,0.0918,0.0656,0.0354,-0.0087,-0.0332,-0.0355,-0.039,-0.0375,-0.0368,-0.0362,-0.0357,-0.0429,-0.0429,-0.043,-0.043,0,0,0.0337,0.0402,0.0444,0.0565,0.0619,0.0753,0.0862,0.1093,0.119,0.1279,0.1228,0.1042,0.07,0.0367,0.0032,-0.0192,-0.0214,-0.0234,-0.0149,-0.0086,-0.0076,-0.0307,-0.0291,0,0,0,0,0]}],[{"header":{"parameterUnit":"m.s-1","parameterCategory":2,"la1":30.2991,"la2":30.254,"lo1":-89.0895,"lo2":-89.0444,"dy":0.0017,"dx":0.0017,"nx":28,"ny":28,"refTime":"2023-11-04T21:00:00:Z","depth":"4","parameterNumber":2,"parameterNumberName":"U-component_of_CURRENTS"},"data":[0,0,0,0,0,0,0,0,0,0,0,0,0,0,0,0,0,0,0,0,0,0,0,0,0,0,0,0,0,0,0,0,0,0,0,0,0,0,0,0,0,0,0,0,0,0,0,0,0,0,0,0,0,0,0,0,0,0,0.066,0.0659,0,0.063,0.0629,0.0629,0.0639,0.064,0.064,0.0641,0.0742,0.0743,0.0745,0,0,0,0,0,0,0,0,0,0,0,0,0,0.0655,0.0656,0.066,0.0659,0.0659,0.063,0.0629,0.0629,0.0638,0.064,0.0641,0.0642,0.0741,0.0743,0.0745,0,0,0,0,0,0,0,0,0,0,0,0,0,0.0642,0.0656,0.066,0.0663,0.0663,0.063,0.0629,0.0628,0.0638,0.064,0.0641,0.0642,0.074,0.0743,0.0745,0.0734,0,0,0.0754,0.0755,0,0,0,0,0,0,0,0,0.0643,0.0642,0.0663,0.0663,0.0663,0.0642,0.0665,0.0671,0.0638,0.0644,0.0641,0.0643,0.0721,0.0726,0.0711,0.0739,0.0743,0.0754,0.0756,0.0757,0.0758,0,0,0,0,0,0,0,0.0644,0.0643,0.0645,0.0663,0.0663,0.0643,0.0643,0.0665,0.0675,0.0644,0.0645,0.0647,0.0722,0.0708,0.0714,0.0745,0.0754,0.0756,0.0758,0.0759,0.0907,0.0909,0,0,0,0,0,0,0.0656,0.0644,0.0646,0.0644,0.066,0.0642,0.0642,0.0645,0.0672,0.0678,0.0646,0.0647,0.0702,0.071,0.0717,0.0776,0.0757,0.0759,0.0761,0.0905,0.0908,0.091,0,0,0,0,0,0,0.0656,0.0656,0.0647,0.0646,0.0644,0.0642,0.0644,0.0644,0.0655,0.0673,0.068,0.0662,0.0704,0.0714,0.0774,0.0778,0.076,0.0763,0.0902,0.0906,0.0909,0.0849,0,0,0,0,0,0,0.0656,0.0656,0.0673,0.0647,0.0644,0.0653,0.0643,0.0642,0.0654,0.0657,0.0689,0.0697,0.0706,0.077,0.0777,0.0781,0.0765,0.0899,0.0904,0.0908,0.0848,0.085,0.0852,0,0,0,0,0,0.0656,0.067,0.0674,0.0675,0.0664,0.0655,0.0652,0.0652,0.0654,0.0666,0.0696,0.0698,0.0803,0.0773,0.0781,0.0786,0.0897,0.0902,0.0907,0.0847,0.085,0.0852,0,0,0,0,0,0,0.067,0.0672,0.0676,0.0689,0.0686,0.0658,0.0671,0.0664,0.0689,0.0706,0.0717,0.0729,0.0791,0.081,0.0777,0.0852,0.0854,0.0861,0.0807,0.0809,0.0811,0.0871,0.0767,0,0,0,0,0,0.0682,0.0701,0.069,0.0704,0.0708,0.0692,0.0692,0.0692,0.0703,0.0714,0.0728,0.0767,0.0811,0.0828,0.0873,0.0897,0.0929,0.0916,0.0918,0.0919,0.0979,0.0996,0.1004,0.0927,0.0927,0.0927,0,0,0.0687,0.0695,0.0703,0.071,0.0708,0.0709,0.0696,0.0707,0.0717,0.0724,0.0754,0.0782,0.0829,0.0865,0.0893,0.0879,0.0954,0.0925,0.0925,0.0987,0.1002,0.1009,0.1016,0.0931,0.093,0.0929,0,0,0.07,0.072,0.0736,0.0739,0.0751,0.0741,0.0751,0.0737,0.0751,0.0784,0.0795,0.0835,0.0884,0.0902,0.0924,0.0972,0.0976,0.0981,0.1013,0.1026,0.1031,0.1037,0.1056,0.1064,0.0962,0.0962,0.0962,0,0.0714,0.0724,0.0738,0.0751,0.0757,0.0759,0.0766,0.0775,0.0782,0.0809,0.081,0.0897,0.091,0.0963,0.0978,0.0973,0.099,0.0979,0.1023,0.103,0.1036,0.1055,0.1064,0.0959,0.096,0.096,0.096,0,0.0717,0.0741,0.0753,0.0772,0.0782,0.0793,0.0804,0.0825,0.0844,0.0856,0.0933,0.0951,0.1014,0.0996,0.1004,0.1054,0.1053,0.1025,0.1001,0.1039,0.1057,0.1068,0.0956,0.0957,0.0958,0.0958,0,0,0.0703,0.0749,0.0751,0.077,0.0797,0.0798,0.0841,0.0875,0.0921,0.0945,0.1004,0.1055,0.1081,0.1116,0.1104,0.1103,0.1125,0.1087,0.1088,0.108,0.1165,0.1101,0.1106,0.1085,0.1088,0.1089,0.1145,0,0.0703,0.0728,0.0753,0.0779,0.0792,0.0827,0.0863,0.0905,0.096,0.1018,0.1062,0.1136,0.1119,0.1153,0.1153,0.1165,0.1159,0.1115,0.1158,0.1161,0.1075,0.1118,0.1097,0.1153,0.1155,0.1157,0.1158,0,0.0687,0.071,0.074,0.0794,0.0805,0.0826,0.0902,0.0947,0.1045,0.1084,0.117,0.1234,0.1301,0.1254,0.1306,0.128,0.1246,0.1222,0.1222,0.121,0.1119,0.1121,0.1178,0.1176,0.1175,0.1174,0.1172,0,0.0651,0.0698,0.0727,0.0741,0.0803,0.0838,0.0878,0.0975,0.1037,0.1158,0.1229,0.1316,0.1368,0.1382,0.1391,0.1356,0.1415,0.1345,0.1253,0.1247,0.1308,0.1303,0.1363,0.1363,0.1363,0.1363,0.1363,0,0.0635,0.0651,0.0717,0.073,0.0768,0.0832,0.0918,0.0961,0.1079,0.1156,0.1281,0.1351,0.1402,0.146,0.1438,0.1409,0.1459,0.1306,0.127,0.128,0.1271,0.1313,0.1307,0.1365,0.1364,0.1364,0.1364,0,0.0581,0.0637,0.067,0.0738,0.0759,0.0795,0.0911,0.0977,0.1099,0.1207,0.1264,0.1392,0.1473,0.1522,0.1524,0.1454,0.1438,0.139,0.1438,0.1397,0.1248,0.1238,0.132,0.1319,0.1318,0.1317,0.1316,0,0.0552,0.0568,0.0645,0.0677,0.071,0.0785,0.0835,0.0951,0.103,0.1219,0.1254,0.1402,0.1473,0.1467,0.1485,0.1477,0.1419,0.1402,0.131,0.1294,0.125,0.1243,0.1235,0.1314,0.1313,0.1313,0.1313,0,0.0479,0.0522,0.0553,0.0615,0.0673,0.0735,0.082,0.0871,0.1025,0.1143,0.1242,0.1318,0.1382,0.1413,0.1419,0.1391,0.1431,0.1387,0.1388,0.1301,0.1286,0.1243,0.1237,0.1308,0.1309,0.1309,0.131,0,0.0417,0.0428,0.0489,0.0545,0.0619,0.0673,0.0729,0.0823,0.0917,0.1122,0.1133,0.1275,0.1359,0.1366,0.1376,0.1369,0.1318,0.1239,0.1246,0.1251,0.1201,0.117,0.116,0,0,0,0,0,0.0343,0.0363,0.0407,0.0487,0.0562,0.0607,0.0714,0.0788,0.094,0.0976,0.106,0.1131,0.1187,0.1251,0.1224,0.1318,0.1308,0.1277,0.1215,0.1284,0.1289,0.1235,0,0,0,0,0,0,0.0304,0.0329,0.0378,0.0432,0.048,0.0552,0.0626,0.0716,0.0763,0.091,0.0956,0.1047,0.1125,0.1191,0.12,0.1214,0.1145,0.1349,0.1345,0.1281,0.1286,0.129,0.1236,0,0,0,0,0]},{"header":{"parameterUnit":"m.s-1","parameterCategory":2,"la1":30.2991,"la2":30.254,"lo1":-89.0895,"lo2":-89.0444,"dy":0.0017,"dx":0.0017,"nx":28,"ny":28,"refTime":"2023-11-04T21:00:00:Z","depth":"4","parameterNumber":3,"parameterNumberName":"V-component_of_CURRENTS"},"data":[0,0,0,0,0,0,0,0,0,0,0,0,0,0,0,0,0,0,0,0,0,0,0,0,0,0,0,0,0,0,0,0,0,0,0,0,0,0,0,0,0,0,0,0,0,0,0,0,0,0,0,0,0,0,0,0,0,0,0.0317,0.0317,0,0.0326,0.0326,0.0326,0.0342,0.0342,0.0342,0.0343,0.0356,0.0356,0.0356,0,0,0,0,0,0,0,0,0,0,0,0,0,0.0302,0.0303,0.0317,0.0317,0.0317,0.0326,0.0326,0.0326,0.0342,0.0342,0.0343,0.0343,0.0356,0.0356,0.0356,0,0,0,0,0,0,0,0,0,0,0,0,0,0.0311,0.0303,0.0317,0.0325,0.0326,0.0326,0.0326,0.0326,0.0342,0.0342,0.0343,0.0343,0.0356,0.0356,0.0356,0.0351,0,0,0.0357,0.0357,0,0,0,0,0,0,0,0,0.031,0.0311,0.0324,0.0325,0.0326,0.0332,0.0325,0.0334,0.0342,0.0337,0.0343,0.0343,0.0347,0.0348,0.0351,0.0351,0.0352,0.0357,0.0357,0.0357,0.0357,0,0,0,0,0,0,0,0.031,0.0311,0.0322,0.0324,0.0325,0.0324,0.0326,0.0327,0.0341,0.0337,0.0338,0.0338,0.0348,0.035,0.0351,0.0352,0.0357,0.0357,0.0357,0.0357,0.0342,0.0341,0,0,0,0,0,0,0.0307,0.0311,0.0321,0.0322,0.0317,0.0324,0.0326,0.0331,0.0341,0.0343,0.0337,0.0338,0.035,0.0351,0.0351,0.0366,0.0357,0.0357,0.0357,0.0342,0.0342,0.0341,0,0,0,0,0,0,0.0307,0.0308,0.0321,0.0315,0.0317,0.0324,0.0329,0.0331,0.0342,0.0341,0.0343,0.0347,0.035,0.0351,0.0364,0.0366,0.0357,0.0357,0.0343,0.0342,0.0341,0.0382,0,0,0,0,0,0,0.0306,0.0308,0.0314,0.0315,0.0317,0.033,0.0328,0.033,0.034,0.0341,0.035,0.0351,0.035,0.0363,0.0364,0.0366,0.0358,0.0344,0.0342,0.0342,0.0382,0.0383,0.0384,0,0,0,0,0,0.0306,0.0314,0.0314,0.0315,0.0324,0.033,0.0331,0.0338,0.034,0.0349,0.0355,0.0351,0.0356,0.0364,0.0364,0.0367,0.0344,0.0343,0.0342,0.0381,0.0383,0.0384,0,0,0,0,0,0,0.0312,0.0316,0.0316,0.0326,0.033,0.0333,0.0342,0.0342,0.0353,0.0358,0.0357,0.0358,0.0368,0.0356,0.0365,0.0354,0.0344,0.0343,0.0374,0.0375,0.0377,0.0385,0.0358,0,0,0,0,0,0.0314,0.0322,0.0324,0.0332,0.0337,0.034,0.0344,0.0348,0.0354,0.036,0.0363,0.0361,0.0361,0.0362,0.0361,0.0362,0.0329,0.0356,0.0358,0.0359,0.0363,0.0308,0.0305,0.0337,0.0337,0.0337,0,0,0.0319,0.0321,0.0326,0.0333,0.034,0.0356,0.0344,0.0356,0.0371,0.0359,0.0383,0.0373,0.0362,0.0367,0.0368,0.036,0.0331,0.0357,0.0359,0.0362,0.0307,0.0304,0.0301,0.0336,0.0336,0.0336,0,0,0.0335,0.0335,0.0351,0.0359,0.0368,0.037,0.0375,0.0381,0.0388,0.0402,0.0394,0.0385,0.039,0.0378,0.0374,0.0377,0.0344,0.0371,0.0385,0.0332,0.0329,0.0326,0.0279,0.0271,0.0367,0.0367,0.0367,0,0.0338,0.0365,0.0357,0.0377,0.0391,0.038,0.0407,0.0408,0.0417,0.0421,0.0416,0.0404,0.0394,0.0391,0.0391,0.0382,0.0347,0.0386,0.0335,0.0331,0.0327,0.0279,0.0271,0.0369,0.0369,0.0369,0.0368,0,0.0373,0.0396,0.0407,0.0431,0.0441,0.0461,0.0463,0.047,0.0471,0.0466,0.0463,0.0441,0.0432,0.0418,0.0411,0.038,0.0362,0.0348,0.0336,0.0327,0.0276,0.0267,0.0372,0.0371,0.037,0.037,0,0,0.038,0.0425,0.0432,0.0459,0.0476,0.049,0.0509,0.0523,0.0534,0.0519,0.0524,0.0504,0.0477,0.0468,0.0442,0.0392,0.0333,0.0361,0.0358,0.0324,0.0216,0.0199,0.0187,0.0309,0.0308,0.0307,0.0191,0,0.0416,0.0473,0.0483,0.0537,0.0568,0.0566,0.0588,0.0591,0.0582,0.0578,0.0535,0.0532,0.05,0.0493,0.0438,0.0364,0.031,0.0366,0.0221,0.0217,0.0211,0.0175,0.0302,0.0183,0.0181,0.0179,0.0178,0,0.0454,0.0489,0.0556,0.0602,0.0616,0.0643,0.067,0.0689,0.0668,0.0649,0.0618,0.0589,0.053,0.0497,0.036,0.0397,0.0312,0.0245,0.0238,0.0203,0.0182,0.0191,0.016,0.0161,0.0163,0.0164,0.0165,0,0.0477,0.0539,0.0599,0.0617,0.0664,0.0693,0.0717,0.0716,0.0727,0.0696,0.0683,0.0611,0.0563,0.046,0.0329,0.0342,0.016,0.016,0.0063,0.0061,0.0096,0.01,0.0053,0.0053,0.0053,0.0053,0.0054,0,0.0514,0.0561,0.062,0.0653,0.0712,0.0736,0.0786,0.078,0.0777,0.0768,0.0728,0.0683,0.0547,0.0438,0.0329,0.016,0.0155,0.0057,0.0025,0.0115,0.0122,0.0088,0.0094,0.0049,0.005,0.0051,0.0052,0,0.0531,0.0577,0.0641,0.0706,0.0728,0.0774,0.0828,0.0846,0.0844,0.0825,0.0818,0.0714,0.0565,0.0432,0.0234,0.0148,0.0003,-0.0056,0.0046,0.0024,-0.0057,-0.0048,-0.0166,-0.0168,-0.0169,-0.017,-0.0171,0,0.0543,0.0584,0.0667,0.0703,0.0738,0.0807,0.0839,0.0865,0.0867,0.083,0.0801,0.0683,0.0594,0.0309,0.0168,-0.0039,-0.0067,-0.0135,-0.009,-0.0063,-0.0083,-0.0071,-0.006,-0.0174,-0.0174,-0.0174,-0.0175,0,0.0552,0.0589,0.0637,0.0704,0.0756,0.0816,0.086,0.0864,0.0871,0.0875,0.0764,0.0646,0.0464,0.0274,0.0107,-0.0036,-0.0079,-0.015,-0.0147,-0.0106,-0.0074,-0.0089,-0.0077,-0.018,-0.0179,-0.0178,-0.0178,0,0.0543,0.0574,0.0629,0.0689,0.0755,0.0794,0.0832,0.0823,0.0833,0.0792,0.074,0.0588,0.0489,0.0272,0.012,-0.0021,-0.0047,-0.0078,-0.0079,-0.0075,-0.0006,0.0051,-0.0054,0,0,0,0,0,0.0521,0.0551,0.0601,0.0665,0.0729,0.0766,0.082,0.0848,0.0855,0.077,0.076,0.0599,0.0369,0.0274,0.0126,0.01,-0.0066,-0.0076,-0.01,-0.0207,-0.0201,-0.0136,0,0,0,0,0,0,0.0507,0.055,0.0583,0.0628,0.0666,0.0727,0.0767,0.0776,0.0736,0.0725,0.0601,0.0559,0.0337,0.0441,0.0116,0.0077,0.0043,-0.0174,-0.0177,-0.021,-0.0205,-0.02,-0.0131,0,0,0,0,0]}]]